Location: Newark
(7.0858°N, 171.3717°E)
Time: 19:56:06
(UTC+00:00)

Tiros 1 - Pass Details

Date: 01 December 2020
Orbit: 630 x 663 km, 48.4° (Epoch: 18 January)

Event Time Altitude Azimuth Distance (km) Brightness Sun altitude
Rises 11:33:18 0° 316° (NW) 2,935 - -70.8°
Reaches altitude 10° 11:35:38 10° 313° (NW) 2,021 - -71.2°
Maximum altitude 11:40:15 66° 231° (SW) 692 - -71.8°
Drops below altitude 10° 11:44:50 10° 149° (SSE) 2,006 - -72.5°
Sets 11:47:10 0° 146° (SSE) 2,911 - -72.7°
